Location: Moscow
(55.7500°N, 37.5830°E)
Time: 18:13:37
(UTC+03:00)

Transit 2A - Pass Details

Date: 09 December 2021
Orbit: 591 x 967 km, 66.7° (Epoch: 21 January)

Event Time Altitude Azimuth Distance (km) Brightness Sun altitude
Rises 22:17:37 0° 172° (S) 3,366 - -49.9°
Reaches altitude 10° 22:20:27 10° 158° (SSE) 2,499 - -50.2°
Maximum altitude 22:24:54 23° 108° (ESE) 1,822 - -50.7°
Drops below altitude 10° 22:29:38 10° 59° (ENE) 2,663 - -51.1°
Sets 22:32:44 0° 46° (NE) 3,643 - -51.4°
